Simultaneous Nadir Overpasses (SNOs) Predictions

Prediction of SNOs between METOP-C and LANDSAT-8 Satellite Orbit:

Table of predicted SNOs for the next 14.0 days since TLE Epoch: 1/10/2025
Index Date (METOP-C) Time (METOP-C) Lat,Lon (METOP-C) SZA (METOP-C ) Date (LANDSAT-8) Time (LANDSAT-8) Lat,Lon (LANDSAT-8) SZA (LANDSAT-8 ) Distance(km) Time Diff (sec)
1 01/11/2025 00:24:13 81.11,-146.68 104.61 01/11/2025 00:25:05 81.11,-146.75 104.62 1.23 52
2 01/11/2025 01:14:52 -81.13, 21.21 75.34 01/11/2025 01:14:31 -81.12, 21.17 75.35 0.92 21
3 01/13/2025 19:58:37 81.12, -80.07 104.14 01/13/2025 19:59:20 81.11, -80.23 104.14 2.77 43
4 01/13/2025 20:49:16 -81.14, 87.83 75.80 01/13/2025 20:48:46 -81.13, 87.72 75.83 2.08 30
5 01/16/2025 15:33:00 81.12, -13.57 103.61 01/16/2025 15:33:33 81.12, -13.59 103.62 0.57 33
6 01/16/2025 16:23:39 -81.14, 154.34 76.33 01/16/2025 16:22:59 -81.14, 154.37 76.34 0.74 40
7 01/19/2025 11:07:24 81.12, 52.82 103.02 01/19/2025 11:07:47 81.12, 52.79 103.02 0.50 23
8 01/19/2025 11:58:03 -81.14,-139.26 76.93 01/19/2025 11:57:13 -81.14,-139.23 76.94 0.62 50
9 01/22/2025 06:41:47 81.13, 119.47 102.40 01/22/2025 06:42:00 81.12, 119.28 102.39 3.27 13



Historial Predications of SNOs between METOP-C and LANDSAT-8
